Eagle River, WI

9:46 PM CST on December 02, 2016 (GMT -0600)
Eagle River Union

Weather History for KEGV - September, 2012

Change the Weather History Date:

Friday, September 28, 2012

  Actual Average Record
Temperature  
Mean Temperature 48 °F -  
Max Temperature 66 °F 57 °F 79 °F (2014)
Min Temperature 30 °F 39 °F 30 °F (2004)
Degree Days  
Heating Degree Days 17    
Moisture  
Dew Point 34 °F    
Average Humidity 71    
Maximum Humidity 100    
Minimum Humidity 28    
Precipitation  
Precipitation 0.00 in - - ()
Sea Level Pressure  
Sea Level Pressure 30.16 in    
Wind  
Wind Speed 2 mph (West)    
Max Wind Speed 10 mph    
Max Gust Speed -    
Visibility 9 miles    
Events      
Averages and records for this station are not official NWS values.
T = Trace of Precipitation, MM = Missing Value Source: NWS Daily Summary

Daily Weather History Graph

Daily Weather History Graph

Search for Another Location

Airport or City:

Trip Planner

Search our weather history database for the weather conditions in past years. The results will help you decide how hot, cold, wet, or windy it might be!

Date:

Astronomy

Sep. 28, 2012 Rise Set
Actual Time 6:52 AM CDT 6:41 PM CDT
Civil Twilight 6:22 AM CDT 7:11 PM CDT
Nautical Twilight 5:47 AM CDT 7:46 PM CDT
Astronomical Twilight 5:12 AM CDT 8:21 PM CDT
Moon 5:44 PM CDT (9/28) 5:20 AM CDT (9/28)
Length of Visible Light 12h 49m
Length of Day
11h 49m
Waxing Gibbous, 98% of the Moon is Illuminated
Sep 28
Waxing Gibbous
Sep 29
Full
Oct 8
Last Quarter
Oct 15
New
Oct 21
First Quarter

Hourly Weather History & Observations

Time (CDT) Temp. Dew Point Humidity Pressure Visibility Wind Dir Wind Speed Gust Speed Precip Events Conditions
12:15 AM 32.0 °F 32.0 °F 100% 30.19 in 3.0 mi Calm Calm - N/A   Clear
12:35 AM 32.0 °F 32.0 °F 100% 30.19 in 10.0 mi Calm Calm - N/A   Clear
12:55 AM 32.0 °F 32.0 °F 100% 30.18 in 2.5 mi Calm Calm - N/A   Clear
1:15 AM 32.0 °F 32.0 °F 100% 30.18 in 10.0 mi Calm Calm - N/A   Clear
1:35 AM 32.0 °F 32.0 °F 100% 30.18 in 1.5 mi Calm Calm - N/A   Mist
1:55 AM 32.0 °F 32.0 °F 100% 30.18 in 7.0 mi Calm Calm - N/A   Clear
2:15 AM 32.0 °F 32.0 °F 100% 30.18 in 3.0 mi Calm Calm - N/A   Clear
2:35 AM 32.0 °F 32.0 °F 100% 30.18 in 10.0 mi Calm Calm - N/A   Clear
2:55 AM 30.2 °F 30.2 °F 100% 30.18 in 10.0 mi Calm Calm - N/A   Clear
3:15 AM 32.0 °F 32.0 °F 100% 30.18 in 7.0 mi Calm Calm - N/A   Clear
3:35 AM 30.2 °F 30.2 °F 100% 30.18 in 4.0 mi Calm Calm - N/A   Clear
3:55 AM 30.2 °F 30.2 °F 100% 30.19 in 5.0 mi Calm Calm - N/A   Clear
4:15 AM 30.2 °F 30.2 °F 100% 30.20 in 7.0 mi Calm Calm - N/A   Clear
4:35 AM 30.2 °F 30.2 °F 100% 30.20 in 1.2 mi Calm Calm - N/A   Mist
4:55 AM 30.2 °F 30.2 °F 100% 30.20 in 4.0 mi Calm Calm - N/A   Clear
5:15 AM 30.2 °F 30.2 °F 100% 30.20 in 10.0 mi Calm Calm - N/A   Clear
5:35 AM 30.2 °F 30.2 °F 100% 30.20 in 10.0 mi Calm Calm - N/A   Clear
5:55 AM 30.2 °F 30.2 °F 100% 30.18 in 10.0 mi Calm Calm - N/A   Clear
6:15 AM 30.2 °F 30.2 °F 100% 30.19 in 10.0 mi Calm Calm - N/A   Clear
6:35 AM 30.2 °F 30.2 °F 100% 30.20 in 10.0 mi Calm Calm - N/A   Clear
6:55 AM 30.2 °F 30.2 °F 100% 30.20 in 10.0 mi Calm Calm - N/A   Clear
7:15 AM 30.2 °F 30.2 °F 100% 30.20 in 10.0 mi Calm Calm - N/A   Clear
7:35 AM 30.2 °F 30.2 °F 100% 30.20 in 10.0 mi Calm Calm - N/A   Clear
7:55 AM 32.0 °F 32.0 °F 100% 30.20 in 10.0 mi Calm Calm - N/A   Clear
8:15 AM 33.8 °F 33.8 °F 100% 30.20 in 10.0 mi Calm Calm - N/A   Clear
8:35 AM 37.4 °F 37.4 °F 100% 30.20 in 10.0 mi Calm Calm - N/A   Clear
8:55 AM 42.8 °F 41.0 °F 93% 30.20 in 10.0 mi Calm Calm - N/A   Clear
9:15 AM 46.4 °F 37.4 °F 71% 30.20 in 10.0 mi Calm Calm - N/A   Clear
9:35 AM 48.2 °F 37.4 °F 66% 30.20 in 10.0 mi WNW 3.5 mph - N/A   Clear
9:55 AM 51.8 °F 37.4 °F 58% 30.20 in 10.0 mi WNW 4.6 mph - N/A   Clear
10:15 AM 55.4 °F 37.4 °F 51% 30.20 in 10.0 mi West 5.8 mph - N/A   Clear
10:35 AM 57.2 °F 35.6 °F 44% 30.20 in 10.0 mi WNW 5.8 mph - N/A   Clear
10:55 AM 59.0 °F 37.4 °F 45% 30.20 in 10.0 mi West 3.5 mph - N/A   Clear
11:15 AM 59.0 °F 35.6 °F 42% 30.20 in 10.0 mi West 4.6 mph - N/A   Clear
11:35 AM 60.8 °F 35.6 °F 39% 30.20 in 10.0 mi West 9.2 mph - N/A   Clear
11:55 AM 62.6 °F 35.6 °F 37% 30.20 in 10.0 mi WSW 8.1 mph - N/A   Clear
12:15 PM 62.6 °F 33.8 °F 34% 30.19 in 10.0 mi WNW 5.8 mph - N/A   Clear
12:35 PM 64.4 °F 33.8 °F 32% 30.18 in 10.0 mi WSW 6.9 mph - N/A   Clear
12:55 PM 64.4 °F 32.0 °F 30% 30.18 in 10.0 mi West 5.8 mph - N/A   Clear
1:15 PM 64.4 °F 32.0 °F 30% 30.16 in 10.0 mi West 5.8 mph - N/A   Clear
1:35 PM 64.4 °F 33.8 °F 32% 30.15 in 10.0 mi WSW 8.1 mph - N/A   Clear
1:55 PM 64.4 °F 32.0 °F 30% 30.15 in 10.0 mi WSW 8.1 mph - N/A   Clear
2:15 PM 64.4 °F 32.0 °F 30% 30.15 in 10.0 mi WSW 5.8 mph - N/A   Clear
2:35 PM 64.4 °F 32.0 °F 30% 30.14 in 10.0 mi WSW 8.1 mph - N/A   Clear
2:55 PM 64.4 °F 32.0 °F 30% 30.14 in 10.0 mi West 10.4 mph - N/A   Clear
3:15 PM 64.4 °F 32.0 °F 30% 30.13 in 10.0 mi West 8.1 mph - N/A   Clear
3:35 PM 64.4 °F 32.0 °F 30% 30.13 in 10.0 mi West 5.8 mph - N/A   Clear
3:55 PM 66.2 °F 32.0 °F 28% 30.13 in 10.0 mi West 6.9 mph - N/A   Clear
4:15 PM 64.4 °F 32.0 °F 30% 30.12 in 10.0 mi West 8.1 mph - N/A   Clear
4:35 PM 64.4 °F 32.0 °F 30% 30.11 in 10.0 mi West 5.8 mph - N/A   Clear
4:55 PM 64.4 °F 32.0 °F 30% 30.10 in 10.0 mi WSW 4.6 mph - N/A   Clear
5:15 PM 64.4 °F 32.0 °F 30% 30.10 in 10.0 mi WNW 4.6 mph - N/A   Clear
5:35 PM 64.4 °F 32.0 °F 30% 30.10 in 10.0 mi WNW 3.5 mph - N/A   Clear
5:55 PM 64.4 °F 32.0 °F 30% 30.10 in 10.0 mi NW 3.5 mph - N/A   Clear
6:15 PM 59.0 °F 37.4 °F 45% 30.10 in 10.0 mi West 3.5 mph - N/A   Clear
6:35 PM 57.2 °F 39.2 °F 51% 30.11 in 10.0 mi Calm Calm - N/A   Clear
6:55 PM 53.6 °F 39.2 °F 58% 30.10 in 10.0 mi WSW 3.5 mph - N/A   Clear
7:15 PM 50.0 °F 41.0 °F 71% 30.11 in 10.0 mi Calm Calm - N/A   Clear
7:35 PM 51.8 °F 39.2 °F 62% 30.10 in 10.0 mi Calm Calm - N/A   Clear
7:55 PM 50.0 °F 39.2 °F 66% 30.10 in 10.0 mi Calm Calm - N/A   Clear
8:15 PM 46.4 °F 39.2 °F 76% 30.10 in 10.0 mi Calm Calm - N/A   Clear
8:35 PM 46.4 °F 39.2 °F 76% 30.10 in 10.0 mi Calm Calm - N/A   Clear
8:55 PM 46.4 °F 39.2 °F 76% 30.10 in 10.0 mi Calm Calm - N/A   Clear
9:15 PM 44.6 °F 39.2 °F 81% 30.11 in 10.0 mi Calm Calm - N/A   Clear
9:35 PM 42.8 °F 37.4 °F 81% 30.11 in 10.0 mi Calm Calm - N/A   Clear
9:55 PM 42.8 °F 41.0 °F 93% 30.11 in 10.0 mi Calm Calm - N/A   Clear
10:15 PM 41.0 °F 41.0 °F 100% 30.11 in 10.0 mi Calm Calm - N/A   Clear
10:35 PM 39.2 °F 37.4 °F 93% 30.11 in 10.0 mi Calm Calm - N/A   Clear
10:55 PM 41.0 °F 39.2 °F 93% 30.11 in 10.0 mi Calm Calm - N/A   Clear
11:15 PM 39.2 °F 39.2 °F 100% 30.10 in 10.0 mi Calm Calm - N/A   Clear
11:35 PM 39.2 °F 39.2 °F 100% 30.10 in 10.0 mi Calm Calm - N/A   Clear
11:55 PM 39.2 °F 39.2 °F 100% 30.10 in 10.0 mi Calm Calm - N/A   Clear